TimeEDT,TemperatureF,Dew PointF,Humidity,Sea Level PressureIn,VisibilityMPH,Wind Direction,Wind SpeedMPH,Gust SpeedMPH,PrecipitationIn,Events,Conditions,WindDirDegrees,DateUTC
12:56 AM,75.0,70.0,84,30.30,10.0,Calm,Calm,-,N/A,,Clear,0,2013-07-16 04:56:00
1:56 AM,75.9,70.0,82,30.30,10.0,NNE,3.5,-,N/A,,Clear,30,2013-07-16 05:56:00
2:56 AM,75.0,71.1,87,30.30,10.0,Calm,Calm,-,N/A,,Clear,0,2013-07-16 06:56:00
3:56 AM,73.0,69.1,87,30.29,10.0,Calm,Calm,-,N/A,,Clear,0,2013-07-16 07:56:00
4:56 AM,73.0,70.0,90,30.29,10.0,Calm,Calm,-,N/A,,Clear,0,2013-07-16 08:56:00
5:56 AM,73.0,70.0,90,30.30,10.0,Calm,Calm,-,N/A,,Partly Cloudy,0,2013-07-16 09:56:00
6:56 AM,73.0,70.0,90,30.32,10.0,Calm,Calm,-,N/A,,Partly Cloudy,0,2013-07-16 10:56:00
7:56 AM,77.0,72.0,84,30.33,10.0,Calm,Calm,-,N/A,,Partly Cloudy,0,2013-07-16 11:56:00
8:56 AM,82.9,73.0,72,30.35,10.0,Calm,Calm,-,0.00,,Clear,0,2013-07-16 12:56:00
9:56 AM,86.0,71.1,61,30.35,10.0,Calm,Calm,-,N/A,,Clear,0,2013-07-16 13:56:00
10:56 AM,87.1,69.1,55,30.34,10.0,Variable,3.5,-,N/A,,Partly Cloudy,0,2013-07-16 14:56:00
11:56 AM,90.0,70.0,52,30.33,10.0,NW,4.6,-,N/A,,Partly Cloudy,320,2013-07-16 15:56:00
12:56 PM,90.0,68.0,48,30.33,10.0,Calm,Calm,-,N/A,,Scattered Clouds,0,2013-07-16 16:56:00
1:56 PM,91.0,68.0,47,30.31,10.0,North,6.9,-,N/A,,Scattered Clouds,350,2013-07-16 17:56:00
2:56 PM,91.9,69.1,47,30.30,10.0,Calm,Calm,-,N/A,,Scattered Clouds,0,2013-07-16 18:56:00
3:56 PM,91.9,69.1,47,30.29,10.0,Variable,4.6,-,N/A,,Scattered Clouds,0,2013-07-16 19:56:00
4:56 PM,90.0,69.1,50,30.28,10.0,Calm,Calm,-,N/A,,Mostly Cloudy,0,2013-07-16 20:56:00
5:56 PM,91.0,70.0,50,30.28,10.0,Calm,Calm,-,N/A,,Scattered Clouds,0,2013-07-16 21:56:00
6:56 PM,91.0,70.0,50,30.27,10.0,NW,5.8,-,N/A,,Scattered Clouds,320,2013-07-16 22:56:00
7:56 PM,87.1,72.0,61,30.28,10.0,North,6.9,-,N/A,,Mostly Cloudy,10,2013-07-16 23:56:00
8:56 PM,84.9,72.0,65,30.28,10.0,North,4.6,-,N/A,,Scattered Clouds,10,2013-07-17 00:56:00
9:56 PM,82.9,72.0,69,30.29,10.0,North,3.5,-,N/A,,Mostly Cloudy,10,2013-07-17 01:56:00
10:56 PM,81.0,73.0,77,30.30,10.0,NNW,4.6,-,N/A,,Scattered Clouds,340,2013-07-17 02:56:00
11:56 PM,80.1,73.0,79,30.30,10.0,North,4.6,-,N/A,,Scattered Clouds,10,2013-07-17 03:56:00